This demonstration page uses our WeatherBlox Daily Observations layout. Learn more.

Left ArrowRight Arrow

41.55636, -103.73856

Hourly Observations for June 22, 2015

Temp ( °F °C ) Dew Point ( °F °C ) Humidity (%) Winds ( mph kmh ) Pressure ( in mb ) Visibility ( mi km ) Precip ( " mm )
12:53 am 00:53 Clear 70 21.1 62 16.7 76 76 Calm 29.62 1003 10 16.0934 0 0
1:53 am 01:53 Clear 67 19.4 61 16.1 81 81 NNW 7 11 29.62 1003 10 16.0934 0 0
2:53 am 02:53 undefined 67 19.4 55 12.8 66 66 WNW 13 20 29.67 1005 10 16.0934 0 0
3:53 am 03:53 Clear 63 17.2 52 11.1 68 68 NW 20 31 29.76 1008 10 16.0934 0 0
4:53 am 04:53 Mostly Cloudy 61 16.1 50 10 67 67 NW 15 24 29.85 1011 10 16.0934 0 0
5:53 am 05:53 Sunny 59 15 49 9.4 69 69 W 10 17 29.91 1013 10 16.0934 0 0
6:53 am 06:53 Sunny 61 16.1 49 9.4 65 65 WNW 12 19 29.93 1013 10 16.0934 0 0
7:53 am 07:53 Sunny 64 17.8 49 9.4 58 58 NW 12 19 29.94 1014 10 16.0934 0 0
8:53 am 08:53 Sunny 68 20 49 9.4 51 51 WNW 12 19 29.96 1015 10 16.0934 0 0
9:53 am 09:53 Sunny 73 22.8 47 8.3 40 40 N 9 15 29.97 1015 10 16.0934 0 0
10:53 am 10:53 Sunny 75 23.9 48 8.9 39 39 NNW 13 20 29.96 1015 10 16.0934 0 0
11:53 am 11:53 Sunny 78 25.6 50 10 37 37 VRB 6 9 29.97 1015 10 16.0934 0 0
12:53 pm 12:53 Sunny 79 26.1 47 8.3 32 32 Calm 29.98 1015 10 16.0934 0 0
1:53 pm 13:53 Sunny 79 26.1 47 8.3 32 32 VRB 6 9 29.98 1015 10 16.0934 0 0
2:53 pm 14:53 Sunny 80 26.7 49 9.4 34 34 ENE 8 13 29.97 1015 10 16.0934 0 0
3:53 pm 15:53 Sunny 82 27.8 48 8.9 31 31 Calm 29.97 1015 10 16.0934 0 0
4:53 pm 16:53 Sunny 81 27.2 48 8.9 32 32 SE 12 19 29.97 1015 10 16.0934 0 0
5:53 pm 17:53 Sunny 80 26.7 50 10 35 35 E 13 20 29.97 1015 10 16.0934 0 0
6:53 pm 18:53 Sunny 78 25.6 50 10 37 37 ESE 14 22 29.98 1015 10 16.0934 0 0
7:53 pm 19:53 Sunny 75 23.9 48 8.9 39 39 ESE 10 17 30 1016 10 16.0934 0 0
8:53 pm 20:53 Clear 71 21.7 50 10 47 47 E 10 17 30.01 1016 10 16.0934 0 0
9:53 pm 21:53 Clear 68 20 49 9.4 51 51 ESE 10 17 30.02 1017 10 16.0934 0 0
10:53 pm 22:53 Clear 64 17.8 51 10.6 63 63 ESE 7 11 30.04 1017 10 16.0934 0 0
11:53 pm 23:53 Clear 64 17.8 52 11.1 65 65 ESE 13 20 30.03 1017 10 16.0934 0 0

Powered by AerisWeather